RH
80 80 81 81 81 82 82 83 83 83 84 86 85 88 84 89 90 76 33 22 26 75 62 18 21 20 24 23 27 38 59 53 45 38 36 26 36 38 37 56 45 43 57 62 58
80 80 80 80 80 81 83 83 83 83 84 86 86 89 89 92 76 42 36 54 60 76 18 15 10 13 18 19 19 30 47 39 32 34 32 26 28 33 46 50 52 56 51 56 57
79 80 81 81 80 80 82 83 83 83 84 87 87 89 92 90 50 23 67 51 68 61 13 12 10 12 16 15 17 26 28 26 27 28 28 36 36 40 48 58 54 57 55 60 63
79 80 82 81 81 82 82 82 83 85 85 86 87 90 90 78 12 13 71 79 75 25 16 12 13 19 19 18 13 28 20 23 29 31 28 32 35 32 46 50 44 45 52 57 63
80 83 84 84 83 83 83 85 85 86 86 86 86 87 81 48 25 17 72 74 34 16 14 12 17 21 20 16 12 19 22 23 24 27 30 31 33 40 45 43 40 40 46 54 60
84 86 87 87 85 85 85 87 88 85 84 85 86 85 67 25 11 14 25 26 16 12 10 11 13 15 14 12 13 18 23 25 26 31 32 31 32 33 47 43 43 43 50 48 52
84 86 86 86 84 83 87 88 86 83 83 84 85 72 60 16 11 16 18 18 12 10 10 10 10 14 13 11 11 17 24 22 27 30 34 33 42 41 42 44 47 47 47 48 49
84 86 86 86 86 87 88 90 88 83 82 84 85 83 39 21 24 17 15 13 10 11 9 8 12 13 11 10 11 16 18 27 26 29 32 40 59 41 41 46 49 47 46 47 49
84 84 85 86 87 88 90 90 83 80 82 86 93 82 43 32 23 17 14 11 11 9 7 5 10 10 12 17 18 21 23 28 27 26 33 42 55 39 37 42 46 46 45 46 49
84 83 84 86 87 89 90 87 78 90 86 70 53 52 29 21 17 13 14 10 8 8 7 7 10 20 22 20 23 23 28 23 26 23 32 43 50 41 39 41 42 43 42 44 46
83 83 85 86 88 88 89 74 28 42 69 41 30 26 18 16 14 11 10 11 8 8 10 10 15 19 20 17 15 18 25 25 22 19 42 43 47 43 41 42 44 47 49 48 48
82 84 86 87 88 88 89 47 19 33 32 24 29 28 19 18 22 15 10 14 9 10 12 13 18 16 16 17 15 15 20 26 24 19 27 46 47 41 41 43 44 47 50 49 56
83 86 88 90 88 90 60 34 25 26 36 21 17 17 16 16 19 16 10 13 10 11 13 15 14 14 16 17 18 17 25 24 22 21 29 41 54 50 43 39 38 42 45 44 57
85 87 89 89 48 65 31 18 26 22 36 26 22 17 16 16 17 12 9 11 8 9 12 13 10 13 17 17 16 18 13 16 23 23 39 34 61 55 41 40 39 42 45 46 53
87 88 89 88 96 80 21 31 23 26 52 19 19 13 15 17 15 10 7 8 10 9 11 12 12 13 15 14 12 12 10 11 24 24 34 41 53 42 46 46 42 41 41 42 47
88 88 89 82 93 78 52 45 29 35 48 25 12 16 14 15 13 10 7 7 8 10 12 10 11 12 12 10 10 9 11 15 22 29 39 35 37 51 52 36 31 36 39 37 44
87 88 90 68 64 40 42 26 38 45 23 19 15 15 13 15 14 13 8 9 10 16 16 14 10 10 10 12 11 12 16 21 23 26 25 23 38 31 40 29 28 32 38 36 42
88 90 92 77 83 67 49 26 51 29 22 17 16 14 17 15 14 13 12 10 11 13 16 16 15 11 9 10 10 13 15 25 27 34 25 23 23 15 34 28 27 26 32 34 41
90 96 74 76 63 57 34 35 33 32 22 18 17 18 19 14 16 15 15 10 9 11 12 20 18 11 9 8 9 12 20 18 25 51 32 28 23 26 30 31 27 27 32 34 39
94 98 78 40 51 44 38 33 27 20 16 16 26 21 21 18 16 17 16 11 9 9 10 13 16 11 8 9 10 9 13 20 27 28 32 29 30 33 46 38 35 32 32 33 36
97 73 43 43 38 40 33 31 17 12 11 17 19 18 16 16 14 16 13 10 8 8 10 9 18 11 15 13 12 18 20 22 22 30 29 31 31 32 37 39 41 36 30 35 38
98 58 30 35 47 51 43 23 25 11 11 12 14 14 16 15 14 15 12 9 8 7 10 11 16 13 11 11 10 15 17 22 24 25 32 32 32 28 30 33 33 33 35 38 33
100 88 37 32 54 51 40 26 18 14 12 13 13 12 12 14 20 17 17 12 9 8 8 10 17 17 17 16 16 14 17 24 26 32 31 33 33 28 28 34 28 30 30 34 39
100 88 53 42 40 51 46 38 29 21 19 16 15 12 14 16 18 20 18 12 12 7 24 20 18 14 15 20 16 16 15 19 21 29 31 30 27 32 31 31 33 32 34 40 46
99 88 55 57 49 40 51 41 35 32 25 25 20 26 30 27 23 26 29 27 20 22 18 10 16 23 16 11 15 11 12 18 19 19 20 19 25 30 35 35 33 31 34 36 38
97 74 68 62 50 48 45 46 29 24 28 28 37 31 32 37 33 37 36 39 35 24 17 20 19 20 13 14 10 10 12 14 15 18 25 22 28 30 29 32 35 29 31 34 41
84 75 85 70 59 52 48 41 28 23 34 40 42 35 39 28 24 28 31 31 29 31 26 22 25 27 21 18 17 19 21 14 17 22 16 22 19 28 36 32 32 30 28 29 31
Wind_Speed
21 21 20 21 20 20 21 20 20 19 18 16 16 13 12 14 17 2 8 13 7 6 4 4 4 5 2 3 4 4 6 3 6 8 3 7 12 12 8 17 10 4 12 16 20
23 22 22 21 21 21 20 20 21 21 20 18 16 14 11 11 4 9 15 16 13 11 4 5 5 1 2 4 6 6 5 11 7 5 7 8 18 13 10 15 13 17 15 19 21
23 24 24 23 22 21 21 21 21 21 20 18 16 14 11 8 4 10 3 20 11 12 4 3 4 1 5 7 7 7 11 9 9 6 10 8 8 3 19 14 26 23 24 23 21
23 24 25 25 24 23 22 20 21 20 20 18 16 13 13 2 6 3 5 9 11 8 3 3 3 2 3 3 4 5 11 18 8 9 9 8 7 6 7 12 20 21 23 21 23
24 24 24 25 26 24 23 21 20 20 19 17 13 11 5 1 14 4 3 9 9 6 7 5 1 2 4 3 4 16 13 14 14 10 10 8 7 10 15 21 18 20 20 19 18
23 23 23 23 24 25 23 21 21 20 17 14 10 9 3 4 7 8 8 9 8 8 7 7 5 5 6 5 3 12 24 21 16 10 7 18 12 8 17 20 19 17 12 15 15
23 24 25 24 25 26 25 23 24 23 17 11 7 3 2 19 3 5 6 5 8 8 5 6 8 2 5 10 6 25 20 13 13 11 8 16 7 10 20 20 20 16 12 11 10
23 24 25 26 26 26 25 26 27 23 12 6 4 1 10 5 6 9 3 5 5 5 5 9 2 4 5 6 7 8 14 9 7 14 10 11 6 11 21 20 17 18 16 14 12
24 24 26 26 27 27 27 29 27 11 4 6 3 3 13 8 4 11 8 7 5 5 6 10 2 7 5 2 6 6 9 12 6 5 10 7 8 13 14 17 17 17 17 16 13
24 25 25 27 27 26 28 28 9 4 3 6 5 3 6 4 6 6 8 11 4 2 4 4 3 2 4 5 5 5 8 17 15 11 3 11 8 19 16 15 17 15 14 14 16
24 25 25 26 27 24 17 8 5 2 2 7 9 8 18 7 6 5 5 6 4 5 6 4 3 6 9 8 6 5 7 12 10 11 9 16 13 19 17 14 15 13 12 12 15
24 25 26 27 29 26 5 2 4 3 13 11 18 16 20 7 9 10 7 7 6 7 5 4 7 11 6 4 6 4 6 8 2 12 8 13 17 19 19 21 18 16 14 14 11
24 25 26 29 32 3 4 7 7 6 5 12 15 12 14 10 15 17 13 8 5 7 6 7 8 7 5 8 4 6 8 10 11 6 7 12 1 8 14 13 13 14 18 17 18
23 24 24 31 4 7 6 7 9 5 4 11 6 10 8 10 8 11 14 10 6 14 6 7 11 7 8 9 7 8 10 14 8 16 8 8 6 7 17 15 11 13 16 17 18
24 24 20 12 7 5 7 12 13 4 5 6 6 5 10 10 4 8 14 5 11 7 8 10 10 10 9 16 7 14 8 12 11 16 8 3 6 10 8 9 11 15 21 19 20
25 24 20 5 2 13 13 15 3 6 10 8 5 6 8 7 7 7 12 6 6 5 4 10 7 8 11 17 9 14 5 7 6 5 2 11 8 5 11 26 20 12 18 19 19
27 28 14 5 7 3 5 4 5 5 5 8 4 6 10 8 9 6 17 13 15 7 8 4 17 10 9 6 7 4 7 2 3 1 8 8 8 13 21 24 19 20 21 21 20
31 32 8 8 8 8 2 5 5 10 16 6 10 14 4 3 9 10 8 13 11 6 3 9 12 15 6 11 11 8 11 9 7 3 6 8 8 13 18 26 20 19 24 22 20
30 4 6 5 12 5 4 4 11 8 3 3 7 7 5 3 3 11 11 17 17 12 14 6 9 8 11 11 12 9 4 11 8 1 4 4 8 7 6 16 16 17 17 20 21
8 5 6 4 14 6 4 8 8 4 7 9 1 4 8 5 7 10 12 14 17 14 9 8 4 8 14 5 7 15 8 4 4 7 4 5 5 7 4 12 12 13 16 18 18
2 6 5 13 6 5 5 9 7 6 11 4 4 9 13 16 14 11 16 13 24 20 12 12 6 14 1 6 11 2 3 5 7 6 7 3 8 8 15 17 18 17 17 13 17
5 5 3 3 4 3 4 5 4 8 8 10 7 15 13 17 21 18 22 18 25 24 12 11 8 14 18 12 8 9 10 8 8 5 1 6 9 5 13 13 16 16 14 12 18
5 6 7 5 3 4 7 9 8 10 11 7 10 15 14 16 16 10 8 10 13 26 20 11 7 8 9 8 3 8 6 7 6 6 7 7 7 1 4 3 8 10 8 9 14
3 5 6 5 3 1 5 8 10 7 12 12 20 20 15 16 9 5 6 6 9 26 30 14 6 12 14 10 5 6 7 7 9 6 6 7 5 3 6 10 7 10 12 10 11
3 6 1 5 4 9 3 6 12 14 8 5 11 4 7 9 6 4 6 8 2 11 22 13 10 7 10 19 10 14 12 9 6 9 10 9 11 11 12 13 14 13 11 10 9
2 4 6 5 7 5 5 2 9 15 7 6 4 8 10 3 6 3 2 3 3 10 8 6 8 10 16 7 8 7 9 14 7 5 2 6 7 11 12 9 8 12 10 9 7
4 5 2 5 6 4 1 9 15 17 6 3 3 4 3 5 14 10 8 6 7 4 5 11 8 6 9 7 6 4 2 6 3 5 6 7 13 10 5 9 10 9 9 10 9
Wind_Direction
354 352 350 348 346 343 340 339 338 338 340 339 334 326 328 317 305 218 240 225 183 146 142 275 246 250 128 260 127 118 97 237 225 162 193 169 125 154 119 133 162 187 140 157 160
351 349 347 345 342 340 337 336 335 335 337 337 334 325 318 327 285 248 234 226 218 162 192 211 260 211 161 254 175 166 136 199 230 180 146 142 132 141 130 148 113 117 131 144 152
349 345 342 341 339 337 335 332 331 331 333 334 333 325 316 325 303 247 276 216 173 183 230 252 284 137 187 188 202 210 222 160 204 136 138 118 116 69 133 143 147 152 148 152 152
347 343 339 336 335 334 331 329 326 327 327 331 331 323 318 269 278 237 319 214 149 172 210 235 250 170 263 275 195 138 206 149 182 166 141 159 104 97 144 155 151 146 142 151 158
342 339 336 333 330 329 326 323 320 319 321 323 326 331 317 330 249 247 111 117 155 179 209 210 266 184 240 258 338 204 120 156 153 149 121 119 89 107 118 135 143 141 148 151 158
338 336 333 330 327 325 323 319 315 311 313 312 314 329 266 276 248 263 131 137 166 183 200 175 218 193 281 268 36 145 138 149 140 131 118 117 134 100 137 138 146 153 144 158 164
336 333 330 328 326 324 320 317 311 307 303 294 294 294 267 237 290 41 123 199 181 190 215 197 225 152 349 327 347 142 131 129 150 151 126 101 76 126 145 149 151 156 159 165 169
335 331 329 326 324 322 319 314 308 305 289 251 258 195 249 249 255 284 196 300 227 256 198 247 136 240 199 255 336 141 120 134 218 145 165 96 148 135 149 151 159 164 173 179 184
333 330 328 326 324 322 319 313 308 308 175 170 149 121 269 300 165 236 169 207 197 261 264 273 253 216 297 96 359 322 153 137 160 252 139 110 144 167 160 157 165 176 182 180 183
330 328 326 325 323 323 320 306 278 73 170 191 251 345 273 241 270 189 192 179 171 177 328 220 167 161 41 87 228 227 109 163 170 177 107 138 173 167 173 168 176 179 186 183 182
328 325 324 324 320 326 336 347 0 9 166 224 236 232 274 267 303 203 202 146 158 120 182 245 119 215 232 198 207 216 133 175 196 151 123 158 161 176 176 183 190 186 178 176 178
327 325 323 322 319 318 283 244 221 75 299 244 247 246 253 260 287 258 148 166 144 195 172 308 214 227 226 210 229 233 199 200 220 163 115 167 172 181 181 195 191 184 177 172 159
327 325 325 322 318 345 212 234 285 347 243 259 226 228 238 177 235 251 160 179 151 191 200 181 239 226 217 268 281 285 201 199 185 145 66 126 180 189 205 199 202 196 182 173 164
326 323 329 330 3 337 266 295 320 296 327 282 237 241 212 174 270 219 186 162 205 199 191 198 245 237 231 244 176 268 213 221 159 158 158 175 207 244 196 198 202 186 183 185 173
323 319 323 327 289 299 276 332 321 61 321 253 238 198 146 153 225 205 174 130 199 178 136 230 216 224 237 237 172 240 211 199 167 176 108 185 101 214 135 215 213 198 197 187 180
319 312 320 298 214 243 310 306 30 47 254 288 206 177 107 154 242 181 173 142 179 185 209 211 242 180 221 247 216 245 254 52 53 94 117 206 151 252 187 209 210 219 199 192 185
315 306 292 258 222 162 307 13 58 176 301 273 32 22 177 170 223 166 182 192 204 162 217 295 237 245 209 237 274 166 65 318 353 85 206 191 187 233 207 217 203 197 195 195 188
316 308 246 203 218 279 358 63 207 225 227 280 345 327 266 173 221 216 172 196 223 132 161 214 254 223 214 187 219 208 156 157 198 248 250 141 212 246 200 206 200 196 193 195 183
321 304 265 230 179 129 105 177 204 203 233 323 11 304 260 254 225 210 181 206 211 175 203 169 247 263 222 220 163 238 147 188 134 65 67 258 300 329 204 194 183 183 180 192 188
314 308 264 150 154 102 98 235 229 204 325 331 180 242 280 291 319 209 203 194 207 193 165 219 275 241 253 183 250 185 175 94 359 161 202 282 259 232 200 181 194 189 186 188 188
356 332 258 133 136 62 197 231 268 261 289 258 232 267 274 288 280 275 221 220 196 209 165 193 139 263 61 213 207 74 124 61 118 137 159 222 268 216 200 184 185 200 208 168 182
354 321 342 109 99 191 214 227 256 262 292 288 283 266 268 294 300 274 218 200 192 202 196 195 171 235 247 248 228 163 171 145 135 230 150 156 265 263 183 183 180 201 202 184 186
315 266 287 118 256 258 277 271 263 268 250 254 256 266 277 281 283 237 206 216 214 197 200 191 211 236 306 333 354 161 165 140 107 89 184 137 257 137 53 125 178 166 194 194 178
303 318 308 29 303 352 5 286 284 270 269 279 282 276 288 274 255 278 277 264 196 202 205 158 143 192 222 213 183 194 161 160 139 138 173 204 190 161 183 178 185 178 168 181 177
220 248 233 319 310 325 257 270 293 306 276 255 292 48 341 274 290 329 323 324 290 221 211 155 179 153 214 222 209 203 182 159 151 180 163 217 183 209 192 181 183 177 172 171 186
298 7 342 277 278 289 272 281 323 307 256 278 259 351 346 352 320 314 343 331 306 327 233 177 217 150 228 229 212 163 210 159 152 130 70 158 214 196 198 164 166 180 174 160 192
325 330 84 278 306 316 22 329 309 317 306 67 322 331 20 318 304 242 231 233 240 278 299 151 137 117 215 158 116 69 123 215 245 73 198 168 221 159 162 185 172 160 166 154 149